Theta_e
340 340 341 340 340 341 340 339 337 338 342 341 341 342 341 341 341 341 340 339 339 338 337 334 331 329 326 323 320 321 320 316 312 317 323 325 327 332 333 333 334 334 334 334 334 335 335 335 336 336 336 337 336 335 334 333 331 331 331 331 331 330 331 330 328 328 331 334 336 336 335 335 333 329 325 321 316 312 319 328 331 332 332 331 330
340 340 341 340 340 340 339 339 338 339 340 340 340 341 341 340 341 340 340 340 339 338 337 334 332 329 326 322 321 324 326 320 315 320 326 327 327 328 331 332 333 333 333 333 333 334 334 335 335 335 336 335 335 335 333 331 330 330 330 329 329 328 328 327 325 325 330 334 334 335 334 334 332 327 324 320 314 311 318 325 329 331 331 329 325
339 341 341 340 340 340 340 339 339 339 338 339 339 339 341 340 340 340 340 339 338 337 336 335 332 328 324 322 324 328 329 324 316 321 326 328 328 327 329 331 332 332 332 333 332 333 333 334 334 334 334 334 332 332 331 329 329 329 328 328 328 327 326 325 325 325 329 332 333 332 332 332 329 326 325 323 320 318 321 325 328 330 329 328 324
340 341 341 340 340 341 340 339 339 338 338 338 336 336 339 340 340 339 338 338 337 336 335 335 331 325 324 325 328 330 330 326 317 320 325 327 329 327 328 330 331 331 331 332 331 331 331 333 334 332 331 331 330 329 329 328 328 328 327 326 326 326 325 324 324 324 326 329 330 331 331 330 329 328 327 326 325 325 325 326 327 328 327 327 326
341 341 341 341 340 341 340 340 339 338 339 337 334 332 335 338 337 336 337 337 336 336 335 334 330 324 327 329 329 329 329 327 318 317 323 326 328 327 327 329 331 331 331 331 330 330 331 333 333 331 331 330 329 329 328 328 327 327 327 326 326 325 325 323 321 322 324 327 328 329 329 329 328 328 329 328 328 328 328 327 327 328 328 328 328
341 340 341 340 340 340 340 340 340 339 339 338 335 331 331 333 333 333 336 336 335 336 335 334 330 325 331 332 329 328 326 326 320 317 321 323 326 327 327 329 330 330 330 330 330 330 331 333 332 331 330 328 327 328 327 327 327 327 327 327 327 325 325 321 319 324 326 327 327 328 328 328 328 328 328 329 328 328 328 328 327 327 328 329 328
340 341 341 341 340 339 339 340 339 339 339 339 337 332 328 330 332 333 336 336 334 335 335 334 330 327 332 332 328 327 324 325 321 318 322 323 325 328 329 329 329 329 329 330 330 330 332 333 332 330 329 327 327 327 326 327 327 326 326 327 326 325 324 319 321 326 327 327 327 327 327 327 327 327 327 328 328 327 328 327 327 327 328 327 327
340 341 341 341 341 339 339 339 339 339 338 339 337 334 329 328 332 333 334 334 334 334 334 334 330 327 331 331 327 327 325 323 318 316 321 325 327 328 329 329 328 328 328 329 329 330 331 331 330 329 329 328 327 326 327 327 326 325 325 325 325 324 320 320 324 327 327 327 327 326 326 326 326 326 327 327 327 327 326 326 326 327 327 326 325
340 340 341 341 340 339 338 339 339 338 338 338 338 337 332 328 331 332 331 332 334 334 335 335 331 327 329 330 328 327 325 322 316 313 316 322 327 329 328 328 328 328 328 328 329 330 331 331 329 329 330 329 328 327 327 326 325 324 324 324 323 320 317 322 326 326 326 326 326 327 326 326 326 326 326 326 326 326 325 325 325 325 325 325 325
341 341 341 341 341 339 338 339 338 338 338 338 338 338 335 329 329 331 331 332 334 334 335 335 333 330 329 330 329 328 325 321 317 312 310 314 322 328 328 327 328 328 328 328 329 329 330 330 329 329 329 328 327 326 325 324 325 324 323 323 320 317 320 325 325 325 327 326 327 326 326 326 327 326 326 326 325 326 325 324 324 325 325 325 325
340 341 341 342 340 339 339 338 338 338 338 338 338 338 337 330 327 329 330 331 333 334 335 335 334 332 331 330 330 329 325 321 318 313 308 308 316 326 328 327 328 327 328 328 328 329 329 329 329 329 328 326 324 324 324 325 325 324 323 320 318 319 323 326 325 326 326 326 327 326 326 326 326 327 326 326 325 325 325 325 325 325 325 325 325
341 340 342 342 340 339 339 338 338 337 337 338 338 337 336 331 327 328 329 329 330 333 334 334 334 333 331 330 330 330 326 322 319 314 308 305 312 324 327 327 328 327 327 328 328 328 328 329 328 327 326 324 323 324 325 325 324 323 322 319 319 322 324 325 325 326 326 326 326 326 326 326 326 326 326 326 325 325 325 325 325 325 325 324 325
341 340 341 341 340 340 339 338 337 337 337 337 337 337 336 331 327 327 327 327 328 331 333 334 334 333 331 330 330 330 328 323 320 316 309 303 307 318 324 326 326 327 327 327 327 327 327 327 326 325 324 323 323 325 325 324 324 323 321 319 320 323 324 325 325 325 326 327 326 326 327 328 328 327 327 326 326 325 325 325 326 325 325 325 325
341 341 340 340 341 340 339 339 337 336 337 337 337 337 336 332 327 328 328 328 329 330 333 333 333 333 331 331 331 330 328 324 320 317 311 303 301 309 319 323 325 325 326 325 325 326 325 325 324 323 323 323 324 324 324 324 323 322 321 319 319 321 325 325 324 325 326 327 327 328 328 328 328 328 328 327 327 326 326 325 326 326 326 327 326
340 341 341 341 341 340 340 339 338 337 337 337 337 336 336 334 329 329 329 329 330 331 333 333 333 333 331 331 331 330 328 325 321 318 313 305 301 302 309 316 320 321 322 322 322 322 321 322 322 322 323 323 323 323 323 323 323 322 321 319 316 317 323 325 324 324 325 325 326 328 328 328 328 328 327 327 327 326 325 325 325 325 325 327 327
340 341 341 340 340 340 340 340 339 337 337 338 337 336 336 335 332 330 329 330 331 331 332 333 333 333 332 332 331 330 329 325 321 319 315 307 302 300 302 306 310 312 312 313 313 312 311 313 315 317 318 317 318 320 321 322 321 321 320 319 315 314 320 324 324 324 323 324 324 325 327 327 328 327 326 327 327 326 325 325 325 325 325 325 325
340 340 340 339 340 340 340 341 339 338 338 338 337 336 336 335 334 331 330 330 332 332 332 332 332 332 332 332 331 330 329 326 322 320 316 309 304 301 301 303 305 305 304 304 304 303 303 303 305 305 306 307 311 316 319 320 320 320 319 317 314 311 316 321 323 323 323 322 322 322 324 325 326 326 326 327 326 326 326 326 326 325 325 325 324
340 340 340 339 340 340 339 340 339 339 338 338 337 336 336 336 335 333 331 331 332 333 332 332 332 332 332 332 331 330 330 327 323 320 319 315 309 303 301 301 302 302 301 301 300 300 300 300 300 300 300 301 305 310 314 316 318 318 317 315 313 310 314 320 322 322 321 321 321 321 321 322 323 324 324 325 326 325 325 325 325 325 324 325 324
339 339 340 339 340 340 339 340 339 340 339 338 338 336 337 336 335 334 333 331 331 332 333 332 332 332 332 332 331 331 330 328 325 322 321 320 317 311 305 302 300 300 300 300 300 300 300 300 300 300 299 300 301 305 308 312 315 316 315 314 312 310 313 319 321 321 320 320 320 320 320 321 321 322 322 323 323 324 324 323 324 324 323 323 323
338 337 339 339 339 340 339 340 338 339 340 339 338 337 337 336 335 335 334 332 331 332 333 332 332 332 331 331 332 331 330 329 326 323 322 322 321 318 313 309 305 303 302 301 301 300 300 299 299 299 299 299 300 301 304 308 311 312 313 311 309 308 311 318 321 320 320 319 319 320 320 321 321 321 321 321 321 321 322 321 322 322 321 320 320
338 336 338 338 338 340 339 339 338 338 339 339 339 338 337 337 336 335 335 334 332 332 332 332 332 332 331 331 332 331 330 329 327 324 323 323 322 321 318 314 312 310 308 305 304 302 301 301 300 300 299 299 299 300 303 306 308 309 308 307 306 308 313 319 320 320 320 320 320 320 320 321 321 321 321 321 320 320 321 320 319 320 320 319 318
337 336 338 338 336 338 339 338 337 337 338 338 338 338 337 337 337 336 335 335 334 333 333 333 332 332 332 331 331 331 330 329 328 325 323 323 322 321 319 316 316 315 312 310 309 307 306 305 304 303 301 300 299 300 302 303 304 304 303 304 307 312 316 319 319 320 320 321 321 320 320 321 321 321 321 320 320 320 320 320 319 319 319 318 318
336 337 337 337 336 337 338 338 337 336 337 338 339 338 337 337 337 337 336 336 335 334 333 333 332 332 332 331 331 331 330 329 328 326 323 323 323 322 319 317 317 316 316 314 313 312 311 310 309 307 305 303 301 300 302 303 304 305 305 306 310 315 318 319 318 319 320 320 320 321 321 321 320 320 320 320 320 320 320 320 319 318 318 318 318
336 336 336 337 337 337 337 337 336 334 335 336 338 337 337 336 336 337 336 336 335 334 334 334 333 333 332 332 331 331 330 328 328 327 324 323 323 322 320 318 317 317 318 316 314 314 314 314 313 313 312 310 308 308 309 310 310 310 310 310 312 315 317 318 318 318 318 319 319 320 321 321 321 321 320 320 320 320 320 320 319 319 318 318 317
334 334 335 336 336 335 336 335 333 332 334 336 337 336 336 337 336 336 336 336 336 335 335 335 334 333 333 332 331 331 330 328 328 327 325 323 323 321 319 318 318 318 318 317 315 315 316 316 316 316 315 315 314 314 313 313 312 311 310 310 310 311 314 316 316 317 317 318 318 319 320 320 321 321 320 320 320 320 320 319 319 317 316 317 316
332 332 333 334 334 333 335 334 332 332 333 336 337 335 334 336 336 336 336 335 335 334 335 336 334 334 333 332 331 330 330 329 328 327 327 325 324 322 318 318 318 318 317 317 316 316 317 317 317 316 316 315 315 314 313 312 311 310 309 308 308 308 311 314 315 316 316 316 317 318 319 320 321 320 320 320 320 319 319 319 318 317 317 317 315
332 332 331 332 333 334 334 334 334 333 333 334 335 334 333 334 335 337 336 334 334 334 335 336 335 334 333 332 331 331 330 330 329 328 327 326 325 323 320 318 318 318 317 317 317 317 318 317 317 316 315 315 314 313 312 311 310 309 308 307 306 306 308 311 313 314 315 315 315 316 317 317 319 319 320 320 319 319 319 319 318 317 317 316 315
332 332 330 331 334 335 335 335 334 334 334 334 333 334 334 333 334 335 334 334 334 335 335 335 334 333 333 332 331 331 331 330 330 328 327 326 325 324 322 319 318 319 318 318 317 317 318 317 316 316 315 314 313 312 311 309 308 307 307 305 304 304 305 307 309 312 313 313 314 314 314 314 316 317 318 318 318 318 318 317 317 316 316 315 314
331 332 332 332 334 335 335 334 333 332 332 332 332 333 334 334 334 334 333 334 335 335 335 334 333 333 333 332 331 331 331 330 330 329 327 327 325 324 323 320 320 320 319 318 317 317 318 317 316 315 314 313 312 311 309 308 305 305 304 303 302 301 301 303 306 309 310 311 311 311 312 312 312 313 314 315 316 316 316 316 316 315 314 314 313
329 330 332 333 334 334 333 332 331 331 331 331 330 331 332 333 334 333 333 334 333 334 334 334 333 333 332 331 331 331 331 330 330 330 328 327 326 324 323 322 322 322 319 317 317 317 318 316 315 315 313 313 311 309 308 305 303 303 303 301 299 298 298 299 302 305 307 307 308 308 308 308 309 310 311 312 312 313 314 314 314 313 313 313 312
326 328 331 332 332 332 331 331 331 331 330 329 329 329 330 332 333 332 332 332 332 333 334 334 333 333 332 331 330 330 331 331 331 331 329 328 326 325 324 323 323 323 320 318 317 317 317 316 315 314 313 312 311 308 306 304 302 300 300 298 296 294 294 295 296 298 301 302 303 303 303 303 304 307 309 310 310 311 311 311 311 311 311 312 311
325 326 328 329 331 331 331 330 330 329 327 326 327 328 328 329 331 331 330 330 332 332 333 333 333 334 333 331 331 330 331 331 331 331 329 328 327 325 324 323 323 322 320 319 318 316 316 317 316 314 313 312 311 307 305 304 301 298 297 296 294 293 292 292 292 292 294 295 296 296 297 297 297 299 303 306 307 307 307 309 310 309 309 309 310
323 324 325 326 328 328 328 327 326 326 325 325 325 326 327 328 329 329 328 328 331 332 330 331 331 333 333 332 332 331 332 331 330 330 330 329 327 326 325 323 321 320 319 319 318 315 315 316 316 314 312 311 311 307 303 303 300 296 295 294 292 292 291 291 291 291 291 291 291 291 291 292 293 293 294 296 299 301 303 305 307 308 307 307 307
321 322 323 324 325 326 326 326 325 325 325 325 324 324 324 325 327 327 327 327 330 331 329 331 332 331 331 331 332 331 332 331 331 331 330 329 327 326 325 323 322 320 319 318 318 315 314 316 316 315 311 309 309 304 301 302 298 296 294 292 291 291 291 291 291 291 291 291 291 291 291 291 291 291 291 291 292 295 298 300 302 304 305 306 306
319 320 322 323 324 325 326 325 323 322 321 320 320 319 320 322 325 326 326 326 329 331 330 333 333 330 328 330 332 332 332 331 331 331 330 328 328 327 325 324 323 321 318 317 317 315 314 315 315 315 309 306 306 300 298 300 298 295 293 291 291 290 290 291 290 290 291 291 291 291 291 291 291 290 290 290 290 291 292 294 296 298 301 303 304
317 317 319 321 322 322 322 320 319 317 315 315 314 314 314 319 322 325 326 326 328 331 331 332 331 330 328 329 331 331 331 330 330 331 330 329 328 327 326 325 324 321 317 316 316 315 314 314 313 315 311 305 304 299 297 299 298 294 291 290 290 290 290 290 290 290 290 291 291 291 291 290 290 290 290 290 289 289 290 290 291 292 294 296 300
316 316 316 317 317 317 317 316 315 314 314 313 312 312 313 317 321 323 326 327 327 330 329 330 331 330 328 329 331 331 330 330 329 330 330 330 329 328 326 326 324 321 318 317 317 316 315 314 312 312 311 306 303 299 295 296 296 292 290 290 290 289 290 290 290 290 290 291 290 291 290 290 290 290 290 290 289 289 289 289 289 289 289 291 295
314 315 316 316 315 315 315 315 314 313 312 311 312 314 316 318 320 322 326 327 327 328 328 328 329 329 328 329 330 329 329 330 330 329 328 329 329 327 325 325 323 322 319 317 317 315 314 314 313 311 309 305 302 297 294 294 293 290 289 289 289 289 289 289 289 290 290 290 290 290 290 290 290 289 289 289 289 289 288 288 288 288 288 288 290
311 313 314 315 315 315 314 314 314 313 311 312 314 316 317 319 320 321 325 326 327 328 328 327 327 329 329 329 330 329 330 330 329 328 326 327 328 327 325 323 321 321 320 317 315 315 314 313 311 310 306 301 299 296 294 294 291 289 289 288 288 289 289 289 289 290 290 290 290 289 289 289 289 289 289 289 288 288 288 288 288 288 287 287 287
309 311 312 313 314 314 314 313 312 312 312 313 315 315 317 319 319 321 325 325 325 327 326 325 326 330 330 330 332 330 329 330 329 327 325 327 328 327 325 323 321 321 320 317 315 315 314 312 310 309 304 298 296 295 295 294 290 288 288 288 288 288 288 288 289 289 289 289 289 289 289 289 288 289 288 288 288 288 288 287 287 287 287 287 287
309 310 311 312 313 313 313 312 312 313 313 314 315 315 317 319 319 321 324 324 324 326 325 325 327 329 329 330 331 330 330 329 327 326 325 327 327 326 325 324 323 322 321 319 317 316 314 312 310 307 304 299 294 293 294 295 291 290 290 289 288 287 287 288 288 288 289 288 288 288 288 288 288 288 288 288 288 288 287 287 287 287 286 286 286
308 309 310 311 312 312 312 312 312 313 314 314 314 315 316 319 319 320 322 323 324 325 325 325 326 326 328 330 331 330 329 326 325 325 326 326 327 326 325 324 323 322 320 318 317 315 313 312 309 304 300 298 295 292 293 295 293 292 292 290 289 289 287 287 287 287 288 288 288 288 288 288 288 288 287 287 287 287 287 287 286 286 286 286 286
308 308 310 312 312 312 312 312 312 312 312 313 314 315 316 317 319 319 321 323 324 325 324 323 324 326 327 329 329 328 327 325 325 325 325 325 325 325 324 322 322 321 319 317 315 313 311 310 310 305 298 295 295 294 295 297 296 294 294 293 293 292 289 288 287 287 287 287 287 287 287 287 288 287 287 287 287 287 287 286 286 286 286 285 285
308 308 309 311 312 312 312 312 312 311 311 313 314 315 315 316 318 320 321 323 324 324 323 322 323 325 325 326 326 325 325 323 324 324 323 324 324 324 323 321 321 320 319 317 314 312 311 309 308 306 300 295 294 294 296 298 296 296 297 297 295 294 294 291 288 286 286 286 286 286 287 287 287 287 287 287 286 287 286 286 285 285 285 285 285
307 308 308 310 312 311 311 312 311 311 311 312 313 314 315 316 318 319 320 320 321 322 322 322 322 323 324 325 324 324 322 321 322 322 322 322 323 323 323 322 321 320 319 317 315 313 312 310 307 305 304 301 297 294 297 298 297 297 299 298 297 298 298 293 290 288 286 287 286 286 286 286 286 286 286 286 286 286 286 286 285 285 285 284 284
306 306 307 308 310 311 311 312 311 311 311 312 313 314 314 316 317 317 318 318 318 319 320 321 321 322 323 324 323 322 321 321 321 322 322 322 322 322 322 321 321 320 319 317 316 314 312 310 309 307 306 306 302 297 296 298 298 298 299 299 299 300 298 293 292 291 288 287 286 285 286 286 286 286 285 286 286 286 286 285 285 284 284 284 284
305 306 307 308 310 311 311 311 311 311 311 311 312 313 314 315 316 317 318 317 317 318 319 320 320 320 321 322 322 321 320 320 321 321 322 322 322 321 320 320 320 319 317 316 315 314 314 314 311 310 308 307 305 300 298 298 297 297 299 299 298 298 296 294 294 293 290 288 287 285 285 285 285 285 285 285 285 285 285 285 285 284 284 284 284
305 306 306 308 309 311 311 311 311 311 310 310 311 313 314 315 316 317 317 317 317 318 318 318 318 319 320 321 321 321 320 319 319 319 319 320 321 320 319 319 319 318 316 315 316 316 316 315 312 309 308 308 308 304 301 300 298 297 298 299 298 296 295 294 295 294 293 291 289 287 285 284 284 284 284 285 285 285 285 285 284 284 284 284 284
305 305 306 307 308 310 310 311 311 310 310 309 310 313 314 314 315 316 316 316 317 317 318 318 319 319 320 320 320 320 319 318 317 317 318 319 320 319 318 318 318 318 316 315 316 316 316 315 311 308 309 309 308 306 304 303 301 299 298 298 296 294 293 293 293 294 294 293 291 289 287 285 284 284 284 284 284 284 284 285 284 284 284 284 284
304 304 305 306 307 309 310 310 311 310 310 309 310 312 313 314 314 315 315 314 315 316 316 318 318 318 318 319 318 318 317 317 317 317 318 319 318 317 317 316 316 316 317 316 314 314 315 314 312 311 312 310 308 306 305 305 304 301 300 298 295 292 292 292 292 292 293 293 293 291 288 287 286 286 284 284 284 284 284 284 284 284 283 283 284
303 303 305 307 308 309 310 310 311 310 309 309 309 311 312 313 313 314 314 314 314 313 314 316 316 316 317 317 317 316 315 316 317 317 318 318 317 316 316 316 315 316 316 317 316 315 315 314 313 313 312 311 309 307 305 304 305 303 301 298 295 293 293 293 292 292 292 293 293 292 290 288 289 288 285 284 284 284 284 284 284 284 283 283 283
Wind_Speed
10 10 10 13 15 15 16 15 15 15 11 11 12 13 14 15 15 16 16 16 16 16 17 18 20 19 19 19 19 19 18 18 18 18 17 17 16 16 17 17 17 17 18 18 18 18 19 19 19 19 19 19 19 19 20 21 21 21 22 22 22 22 22 21 21 22 23 24 22 22 23 22 23 23 23 23 23 22 23 23 22 22 22 20 20
12 12 11 14 16 14 15 16 16 15 13 11 12 13 14 15 15 15 15 15 16 15 16 17 18 18 18 19 19 18 18 18 19 19 18 18 17 17 17 17 17 17 18 18 18 18 18 19 19 18 18 18 19 19 20 21 21 21 21 21 21 21 20 21 21 21 24 25 23 22 23 23 22 23 23 23 23 23 23 24 24 23 21 20 22
14 13 11 15 17 14 14 15 14 14 14 12 11 12 13 14 15 15 15 15 15 15 15 16 17 17 18 19 19 18 18 18 19 19 19 19 18 18 18 18 18 18 18 18 18 18 18 18 18 17 18 18 19 19 20 21 21 21 21 20 20 20 20 20 19 19 22 24 22 21 22 22 23 23 23 23 24 24 24 24 24 24 22 22 23
14 13 11 14 16 15 13 14 13 13 13 11 10 12 12 13 14 14 14 14 14 14 14 15 16 18 19 20 19 18 18 18 19 19 20 19 19 19 19 19 19 19 19 19 18 18 18 19 17 17 18 18 19 19 20 21 20 20 20 20 20 20 20 20 20 20 22 23 21 20 20 21 23 24 24 24 24 25 25 24 24 24 23 24 25
14 13 12 13 15 15 14 14 13 13 12 11 10 12 13 13 13 14 14 14 13 13 13 15 17 18 20 19 18 18 17 17 18 19 19 19 19 19 19 20 20 19 19 19 18 18 19 19 17 17 18 19 19 19 19 20 19 19 19 20 19 20 20 20 22 22 23 23 21 20 20 20 23 25 24 24 25 26 26 26 25 25 24 25 26
14 13 13 13 14 13 14 14 13 14 13 12 11 11 13 13 13 14 14 14 14 14 13 15 17 18 19 18 18 17 17 17 18 19 19 19 20 19 20 20 20 20 19 19 19 19 19 18 17 18 19 19 19 19 18 18 19 19 18 18 19 19 20 20 23 23 22 21 20 20 20 21 22 24 24 24 24 25 26 26 26 25 25 25 26
14 14 13 12 13 13 14 13 13 14 14 13 12 11 13 13 13 14 15 14 14 15 13 14 16 18 17 17 17 16 16 16 17 19 19 19 20 20 21 21 21 20 20 19 19 19 19 18 18 18 18 19 19 18 19 19 19 18 18 18 18 19 19 20 23 24 21 20 20 19 20 21 22 24 24 24 24 25 26 26 27 26 26 26 26
14 14 14 13 13 14 14 13 13 14 14 13 13 12 12 13 14 13 14 14 14 15 13 14 15 16 17 17 16 16 16 16 16 18 19 20 20 21 21 21 20 20 20 20 20 19 19 19 19 18 18 19 19 19 19 19 18 18 18 18 19 18 18 22 25 24 23 21 20 20 20 21 22 24 24 24 25 25 25 25 26 27 27 26 26
15 14 15 14 13 14 14 14 14 14 13 13 14 13 11 13 14 14 14 14 14 15 13 14 14 15 17 16 15 15 15 15 16 17 18 19 20 21 20 20 20 20 20 20 20 20 19 19 19 19 18 18 19 19 18 18 18 18 19 19 19 19 21 25 24 22 23 23 22 22 21 22 22 23 23 24 25 25 26 26 26 27 28 27 27
14 14 16 13 13 15 15 14 14 13 13 13 14 13 11 12 13 13 14 14 15 15 13 14 14 14 15 15 14 14 14 14 15 16 17 18 20 21 21 20 20 20 20 20 20 19 19 19 19 18 18 17 18 18 17 17 18 19 19 19 19 21 25 25 23 22 22 22 23 23 23 23 23 23 22 23 24 25 26 26 26 26 27 27 27
14 14 15 12 14 16 15 15 14 13 13 13 13 12 11 11 12 13 13 14 14 14 14 13 13 13 13 14 14 13 14 14 15 16 17 17 20 21 21 20 20 20 20 20 20 19 20 19 18 18 17 16 16 17 17 18 19 19 19 20 21 23 26 24 22 22 22 22 22 22 22 23 23 22 22 23 24 24 24 25 25 25 25 26 26
14 14 14 12 15 16 15 14 13 13 13 13 12 11 11 10 11 12 12 14 14 15 13 13 13 12 12 13 13 13 13 14 14 15 16 17 19 20 20 21 20 20 20 20 20 19 19 18 17 17 17 17 17 18 18 19 19 19 19 21 23 26 27 24 22 23 22 21 21 21 22 22 22 21 21 22 22 23 23 23 23 24 24 24 24
14 14 14 14 15 16 15 14 14 13 13 13 12 11 10 10 11 12 12 13 14 15 13 12 13 12 11 12 12 12 13 14 14 14 15 16 18 19 20 20 20 21 21 20 19 19 19 18 18 17 17 17 18 18 19 18 18 18 19 21 23 26 27 24 23 23 23 21 21 21 22 22 21 20 20 21 21 21 22 22 22 22 23 22 22
14 14 14 13 15 16 15 15 14 14 13 12 12 11 10 10 11 11 12 12 13 14 13 13 12 11 11 12 12 12 13 13 14 14 15 16 17 18 19 20 20 20 20 19 19 19 19 19 19 18 18 18 18 18 18 17 17 17 18 19 21 25 25 23 23 24 23 22 21 21 22 22 20 18 18 19 20 20 20 21 21 21 21 21 22
15 15 14 13 14 16 16 15 14 14 14 13 13 12 11 11 11 11 11 12 13 13 13 12 12 11 10 11 12 12 13 13 13 14 15 16 16 17 18 19 19 19 19 19 19 19 19 19 18 18 18 17 17 17 17 16 16 16 17 17 18 22 23 20 21 21 21 22 21 21 21 21 20 19 19 20 19 19 20 20 20 21 21 21 21
14 14 14 13 14 16 16 16 15 15 14 14 13 13 12 11 11 11 11 12 12 12 12 12 11 11 10 11 11 12 13 13 13 14 14 15 16 17 17 18 18 19 19 19 19 18 18 18 18 18 17 17 16 16 16 16 16 16 16 16 17 20 23 20 19 19 19 19 19 20 19 19 20 20 21 21 20 20 21 21 21 21 22 22 22
14 14 14 14 13 14 15 15 16 15 15 14 14 14 13 13 12 11 11 12 12 12 12 11 11 10 10 11 11 12 13 13 13 14 15 16 17 17 17 18 18 18 18 18 18 18 18 18 18 18 18 17 17 17 17 16 16 16 16 16 17 19 23 21 19 20 19 18 18 19 18 18 20 21 22 22 21 21 21 21 21 23 23 23 22
15 14 14 15 14 13 14 15 16 15 15 15 15 15 14 13 13 12 12 12 12 11 11 11 11 11 10 11 11 12 13 13 13 14 15 16 17 17 17 17 18 18 18 18 18 18 19 19 19 19 19 18 18 17 17 17 16 16 16 17 18 20 22 21 19 19 19 19 19 19 19 19 20 20 21 21 22 22 21 22 22 22 23 22 22
15 16 14 15 14 14 14 14 15 15 14 15 15 15 15 14 13 13 12 11 11 11 11 11 11 11 11 11 11 12 12 12 12 13 14 15 16 17 17 17 17 18 18 18 18 18 18 19 19 19 19 19 19 18 17 17 16 16 16 17 18 20 23 22 19 19 19 19 20 20 20 20 21 21 20 21 21 22 22 23 23 22 23 22 22
17 18 16 15 15 15 15 15 16 15 13 14 15 16 15 15 14 14 13 12 11 11 11 11 11 11 11 12 12 12 12 12 12 13 13 13 14 15 17 17 17 18 18 18 18 18 18 19 19 19 19 19 19 19 18 18 17 17 17 17 18 21 23 21 19 19 20 20 21 21 20 20 20 21 20 21 22 22 23 23 24 23 23 24 24
17 19 17 16 16 15 16 16 15 15 14 15 16 16 16 16 15 14 14 13 12 12 12 11 11 11 11 12 11 12 13 12 12 12 12 12 13 14 15 17 18 18 18 18 18 18 19 19 19 19 19 19 19 20 19 19 18 18 17 18 20 22 24 21 18 18 20 20 20 19 19 20 19 20 20 21 22 22 23 23 24 24 24 26 26
17 19 18 19 17 14 16 16 15 16 16 16 16 15 16 16 16 15 15 14 14 13 13 12 12 12 12 12 11 11 12 12 13 13 13 13 13 14 15 17 18 19 20 19 19 19 19 19 20 19 19 19 20 21 20 19 18 18 18 19 21 22 24 25 22 19 20 20 20 18 18 19 19 19 20 20 21 21 22 23 24 23 22 24 26
18 19 18 20 19 16 17 16 14 14 16 16 15 15 16 16 16 16 15 16 16 14 14 13 13 13 12 12 11 11 11 12 13 13 14 14 14 14 15 17 19 20 20 20 20 21 21 21 21 20 20 20 21 22 21 21 20 19 19 20 21 22 23 27 25 23 23 22 20 18 18 19 19 19 20 20 21 21 22 22 23 22 22 23 24
19 18 16 19 20 18 18 17 16 14 16 18 16 15 15 17 17 17 17 16 16 16 15 14 14 13 13 11 11 11 12 13 13 13 14 15 14 14 15 17 19 20 21 22 22 22 22 22 22 21 21 21 22 23 22 22 21 21 21 20 20 19 21 24 25 24 24 24 23 20 19 19 19 19 19 20 21 21 21 22 22 22 23 24 25
17 16 19 22 21 19 19 18 18 16 16 17 18 16 14 16 17 17 18 18 17 16 15 15 15 14 12 12 11 12 14 15 15 14 14 15 15 16 16 18 20 21 21 23 23 23 23 23 22 21 21 20 21 22 21 21 21 21 20 19 18 18 19 21 23 24 24 24 24 22 20 20 19 18 19 20 21 20 20 21 21 22 24 25 25
18 17 19 24 23 20 20 18 18 17 16 18 20 18 15 15 16 18 18 18 19 17 16 17 16 15 14 13 13 13 14 17 16 13 13 14 15 16 17 19 20 22 22 23 24 23 23 22 22 21 20 19 19 19 19 20 20 20 19 19 18 18 18 20 22 24 24 23 23 23 24 22 20 20 21 21 21 20 21 21 21 24 25 25 25
24 20 17 21 24 22 22 19 18 18 17 18 18 17 18 15 15 18 17 17 18 18 18 18 18 18 17 15 15 14 15 18 16 14 14 13 13 16 18 19 20 21 22 22 24 24 23 22 21 21 20 19 18 18 18 19 19 19 19 18 18 18 19 19 20 22 23 22 21 23 24 23 22 22 22 21 21 21 20 20 21 24 26 26 26
25 24 22 24 26 25 24 23 21 20 18 18 17 16 18 19 17 17 17 17 17 18 20 19 18 18 18 17 16 14 16 18 16 16 16 14 14 17 20 20 20 20 19 21 23 24 23 22 21 20 20 19 18 18 18 18 19 19 19 18 18 18 18 18 18 19 21 20 19 21 22 23 22 22 21 20 22 22 20 20 21 22 25 25 25
26 25 28 29 28 27 25 24 23 22 22 21 20 17 18 20 19 16 17 18 19 18 18 19 19 18 18 18 16 15 17 19 18 17 16 16 18 19 20 21 20 17 18 20 23 24 22 22 21 21 21 19 19 18 18 18 19 19 19 19 19 19 19 19 19 19 20 20 19 19 20 21 21 20 20 20 21 22 22 22 22 22 24 24 23
29 27 29 31 29 29 27 27 27 26 26 26 24 18 16 19 18 15 16 18 18 18 19 21 21 19 18 18 17 15 16 19 20 19 17 19 22 21 21 22 19 16 18 22 24 24 22 22 22 22 21 20 18 19 19 19 19 19 19 19 20 20 20 20 20 20 20 20 20 18 18 20 21 21 21 20 19 20 21 21 22 21 23 23 22
26 26 29 32 31 31 30 30 29 28 28 29 27 20 17 19 18 16 19 20 18 17 19 20 22 22 20 19 19 17 16 17 20 20 20 22 24 23 23 23 20 17 19 23 25 25 23 22 22 22 21 19 18 19 19 19 19 19 19 20 21 21 21 20 20 20 20 19 19 18 17 18 19 20 21 21 19 19 20 21 21 21 20 20 21
26 25 25 31 32 30 30 29 29 30 28 28 26 23 20 19 18 16 20 22 20 21 22 20 21 23 22 22 22 20 18 18 20 21 22 24 26 25 25 25 23 22 22 23 25 27 24 22 22 22 22 19 18 19 19 18 19 20 19 21 21 21 21 21 20 20 20 19 18 18 17 16 16 16 18 19 18 18 19 20 21 20 19 18 19
31 29 27 31 33 30 31 30 30 29 27 25 22 20 20 20 21 19 19 21 21 24 27 25 25 24 22 23 24 22 20 20 21 21 22 24 27 27 26 27 27 26 26 25 26 28 25 23 22 21 22 21 19 20 21 19 19 20 20 21 21 20 20 20 20 19 19 19 18 17 16 16 15 14 14 14 15 16 17 19 20 20 19 17 18
31 31 31 32 32 32 32 30 29 28 27 28 24 21 21 19 21 22 21 23 24 25 26 27 28 27 23 23 25 23 23 22 21 22 23 25 27 28 29 29 27 27 28 28 28 29 27 25 23 21 23 23 21 22 22 20 19 19 20 20 20 20 20 19 19 19 18 17 16 16 15 14 13 12 12 11 11 13 13 15 17 18 19 18 17
30 31 32 30 31 32 32 30 30 29 27 28 28 27 26 21 20 24 26 26 25 26 26 25 26 24 21 23 25 24 24 23 21 22 23 25 28 29 31 30 27 26 28 29 29 29 28 27 24 22 25 25 24 23 22 21 20 20 20 20 20 20 19 18 18 17 17 16 15 14 13 12 12 11 12 11 11 10 10 10 11 14 15 17 17
31 31 31 30 31 32 31 30 29 28 27 28 29 29 29 24 20 25 30 28 25 26 28 27 25 23 22 23 23 23 23 21 22 23 21 25 31 32 33 32 30 30 30 31 30 29 29 28 25 23 25 27 25 24 23 22 21 20 21 21 20 20 19 18 17 16 15 15 14 12 11 11 10 10 11 11 10 10 9 8 8 8 10 12 15
30 31 31 31 31 31 31 30 29 28 26 27 26 26 27 24 20 25 31 29 27 26 27 27 26 27 25 24 24 25 26 23 23 23 21 24 30 34 35 34 33 33 32 32 31 30 29 28 27 26 26 27 27 26 25 24 22 22 22 21 20 19 18 17 16 15 14 13 12 11 10 9 9 9 9 9 9 8 7 7 7 6 7 9 12
29 30 31 31 31 31 31 30 28 26 24 24 20 17 19 20 21 27 29 28 28 28 27 25 26 29 28 27 27 27 26 25 24 23 21 22 27 33 34 33 35 34 33 34 32 31 30 29 29 28 26 27 28 28 27 26 24 23 22 20 19 18 17 16 15 14 13 12 11 9 9 8 7 7 7 7 7 7 7 7 7 7 7 7 9
30 29 30 31 30 30 30 29 28 25 23 20 15 14 18 21 23 26 27 28 28 27 28 27 25 29 30 29 29 28 26 25 25 22 21 22 25 30 31 33 36 35 35 35 34 32 31 31 31 30 28 28 28 29 28 27 25 23 21 19 18 17 15 14 13 12 11 10 9 8 7 7 7 6 7 7 6 6 6 7 7 7 7 7 6
30 30 29 30 30 30 29 28 27 24 20 16 15 18 21 23 24 26 27 30 30 27 27 27 25 28 30 29 30 28 25 25 26 24 22 23 26 29 30 33 35 35 36 37 36 35 33 33 32 31 31 29 29 30 29 27 26 22 19 18 16 15 14 13 12 11 10 9 8 8 7 6 6 6 6 5 5 5 5 6 6 7 7 6 6
30 30 31 32 32 31 30 28 26 23 20 18 19 22 24 25 26 27 29 30 30 28 27 27 26 28 29 29 29 28 26 25 25 23 23 26 28 28 30 33 35 35 36 36 36 36 35 35 33 32 32 32 31 30 29 28 24 19 15 14 13 12 12 11 10 9 9 8 8 7 6 6 5 5 5 4 3 3 4 5 5 6 6 6 7
31 33 33 33 33 31 29 28 25 25 23 19 20 23 25 28 29 28 29 29 28 28 26 25 25 26 28 29 29 28 27 25 23 22 21 25 30 31 30 33 34 34 35 36 36 36 37 37 35 33 32 33 33 32 30 24 18 15 15 12 10 8 8 8 8 8 8 7 7 6 6 5 4 4 4 3 2 2 3 4 5 5 5 6 6
28 31 32 30 30 29 28 28 27 29 27 20 20 22 22 25 29 28 29 29 28 28 27 25 24 26 28 29 29 28 27 24 22 21 20 22 27 29 31 33 33 34 36 37 36 36 38 38 36 35 33 32 31 31 28 19 14 16 14 9 7 5 4 5 6 6 8 7 6 6 5 4 3 3 3 2 2 2 2 3 4 4 5 5 5
24 27 30 28 28 30 30 29 29 31 29 22 20 21 20 24 29 28 28 28 28 29 28 26 26 27 28 28 28 27 24 22 21 22 21 22 23 25 28 32 33 35 36 36 37 38 40 39 37 37 37 33 28 29 27 20 19 19 11 4 5 4 3 6 7 6 6 7 6 6 5 4 3 3 3 3 3 2 2 2 2 3 3 4 4
26 29 32 32 30 31 31 29 29 30 29 23 22 25 25 27 28 26 26 26 25 27 28 28 29 30 30 30 28 27 24 23 23 24 24 24 24 24 26 29 31 34 36 37 38 41 41 40 38 38 38 35 30 29 27 23 23 21 12 7 5 2 3 8 10 6 5 5 6 7 6 5 5 4 4 4 4 4 3 2 1 2 2 2 3
30 31 33 34 32 30 29 29 28 30 28 23 26 31 30 31 32 30 29 29 27 29 32 34 33 32 32 31 30 28 26 24 25 26 26 26 25 26 27 28 29 34 37 37 40 43 42 41 39 38 37 34 32 30 26 24 26 24 16 10 6 2 4 11 9 4 5 5 6 7 6 6 6 6 6 6 6 5 5 4 3 2 1 1 2
29 31 31 32 31 27 27 28 26 29 28 23 28 34 33 33 35 34 34 34 32 32 34 34 33 32 32 32 31 28 26 25 26 26 27 26 27 28 29 29 31 35 38 39 42 44 43 41 39 38 36 33 33 32 29 27 26 24 19 14 8 3 7 13 8 5 6 5 6 7 7 8 7 7 8 7 7 7 7 6 4 3 2 1 1
26 27 28 29 28 25 26 27 24 27 27 22 28 35 34 34 35 35 34 34 33 32 32 32 31 31 32 32 31 29 27 27 27 27 27 28 29 30 30 31 33 37 40 41 42 43 43 41 39 38 37 34 33 31 32 31 27 23 21 17 10 7 11 13 10 7 5 5 7 6 7 9 8 9 9 8 8 8 8 8 6 4 3 3 2
23 24 26 28 28 26 25 27 25 26 27 26 31 35 35 35 35 33 29 29 30 29 31 31 31 32 31 31 31 30 29 28 27 28 28 29 30 29 29 32 35 39 42 41 41 43 42 41 40 39 37 35 33 31 32 33 28 24 24 19 11 10 13 11 10 9 4 4 7 7 9 9 8 9 10 10 9 9 9 9 8 6 5 5 4
21 23 24 26 27 26 25 26 26 24 26 30 33 34 35 35 34 30 24 26 28 28 30 32 32 32 31 31 32 30 29 28 28 27 27 29 29 28 29 31 35 40 43 42 42 43 42 40 40 39 38 36 34 32 31 32 30 26 25 21 15 13 12 8 9 10 5 4 5 7 12 12 9 10 11 11 10 10 10 10 9 8 6 6 6
18 20 20 21 23 23 23 24 24 22 24 31 33 34 36 35 34 33 30 30 29 28 31 34 34 33 33 34 33 31 29 29 29 29 29 29 28 28 29 31 35 39 41 39 39 39 39 38 38 39 39 37 35 32 30 30 30 28 25 21 18 17 13 9 11 12 9 6 5 7 12 12 9 9 12 13 11 11 11 10 11 10 8 8 8
Wind_Direction
148 143 134 130 125 127 126 127 132 135 126 115 111 108 109 107 107 104 103 102 99 97 97 98 95 91 84 78 75 72 69 68 70 77 80 82 85 85 86 87 88 89 90 88 86 84 84 84 85 84 82 81 80 79 78 79 79 80 81 80 80 79 79 79 80 81 81 76 71 70 68 67 62 58 57 56 57 62 67 65 59 56 55 54 58
152 144 133 134 130 132 134 134 137 138 129 121 120 114 111 109 108 107 105 103 102 99 98 98 96 90 84 80 77 74 71 69 72 78 78 80 83 86 86 87 88 90 92 90 88 86 85 85 85 85 83 81 80 78 78 80 80 80 78 78 77 77 76 76 79 83 84 76 70 68 64 63 59 55 53 51 53 58 62 63 60 58 55 54 56
149 145 140 141 136 139 138 134 137 137 130 127 129 122 115 113 111 108 106 105 103 102 100 99 96 90 85 83 80 76 72 70 73 77 78 78 80 84 86 86 88 90 91 91 89 88 86 86 87 88 85 80 79 79 80 80 79 79 77 76 76 75 75 77 79 84 84 77 69 65 59 58 54 52 53 51 53 56 58 59 59 58 57 55 54
148 146 146 146 140 143 140 133 135 133 128 127 133 131 125 119 115 112 109 107 104 104 104 101 96 90 87 85 81 77 73 71 73 77 77 78 79 82 85 85 88 90 91 90 89 88 89 87 87 88 85 81 79 79 79 78 77 77 77 77 77 77 77 79 80 81 80 75 70 65 60 56 53 52 54 54 54 54 54 56 57 57 56 56 56
150 148 148 149 145 143 140 134 134 132 129 129 133 134 131 126 123 117 111 107 105 104 105 104 98 92 89 85 81 77 74 72 75 79 79 78 79 81 84 86 88 90 91 90 89 89 90 89 89 89 86 84 82 80 79 78 77 75 77 77 78 79 79 80 79 75 71 69 66 64 61 58 56 54 54 55 55 55 53 54 55 56 55 55 56
152 153 149 151 146 141 140 136 137 138 134 132 130 129 129 128 127 120 112 109 108 105 105 105 99 95 91 85 83 80 76 74 76 81 80 80 81 81 84 86 88 90 91 90 90 91 92 92 91 89 86 83 82 81 80 77 76 75 77 78 78 80 79 78 76 69 65 65 64 63 61 60 59 55 54 56 55 56 55 54 54 55 55 56 56
155 156 152 154 148 145 144 139 143 141 135 134 130 127 127 127 125 119 115 111 111 108 108 107 100 97 92 87 85 81 79 77 78 82 82 81 82 82 84 86 88 90 91 91 92 93 93 90 87 87 85 83 82 80 78 77 77 78 81 82 82 79 76 75 72 67 66 65 64 64 63 62 61 58 55 56 56 56 56 56 56 56 56 56 58
157 158 157 157 151 149 145 142 146 141 137 137 134 130 130 130 125 122 119 114 113 111 112 110 102 99 96 91 88 82 79 79 80 84 85 84 84 84 86 87 89 91 92 93 94 94 92 91 90 88 87 86 84 81 81 82 80 81 83 83 82 77 77 76 71 67 67 67 66 67 66 65 63 61 57 57 58 57 57 58 57 57 57 58 59
159 160 162 157 153 152 147 148 150 144 141 141 138 131 131 132 128 125 121 117 117 115 115 112 104 100 98 95 90 84 80 80 81 85 89 89 88 88 89 90 91 92 93 95 95 94 92 91 92 90 90 89 89 89 88 87 85 85 84 83 80 79 79 77 73 71 70 69 69 69 69 67 64 62 59 59 60 59 59 60 60 59 59 59 60
160 162 162 159 158 156 153 154 152 148 143 141 138 133 132 134 131 126 122 122 121 119 118 114 108 102 99 97 93 86 82 82 82 85 90 92 93 92 92 93 93 94 95 97 97 95 92 91 92 91 92 93 94 94 90 89 90 87 85 82 81 83 81 77 76 75 73 72 71 70 70 69 67 65 63 61 62 61 60 61 62 62 61 61 60
165 164 162 163 164 159 157 158 155 150 145 142 139 136 136 138 136 128 126 127 123 120 120 118 114 108 102 99 96 89 84 83 83 85 89 94 96 95 95 95 95 96 97 97 98 96 95 94 93 93 94 95 95 94 92 92 92 88 86 83 84 87 84 78 76 76 76 74 72 71 70 68 67 66 65 64 63 62 61 62 63 62 62 61 60
167 166 166 166 164 162 159 159 159 154 149 147 144 143 141 142 142 132 128 127 124 122 121 122 118 113 108 104 101 93 86 83 82 84 88 94 98 98 97 98 97 97 99 99 99 98 97 96 95 95 95 95 95 95 95 94 92 89 88 88 89 89 85 79 76 77 77 74 72 71 69 68 68 68 66 65 63 63 63 63 63 63 62 61 60
169 170 171 169 167 165 163 163 163 160 156 153 150 150 145 143 144 135 130 127 125 125 127 127 122 119 113 108 104 96 89 84 82 84 88 94 98 99 100 101 101 101 101 102 102 101 99 97 96 97 97 97 98 98 98 96 93 91 91 93 93 90 85 80 78 77 77 75 72 71 70 68 68 69 68 67 65 64 66 65 64 65 64 63 64
172 173 172 173 171 171 169 166 166 165 162 161 157 155 150 145 146 141 136 133 132 131 133 131 127 124 118 112 107 100 93 87 86 87 89 94 98 100 101 102 103 105 104 104 106 104 101 99 97 97 98 100 102 101 100 98 95 93 93 94 95 91 85 79 79 77 75 75 72 71 69 68 66 67 70 72 70 67 70 71 68 68 68 66 67
176 175 175 174 172 177 175 168 171 170 166 167 164 162 159 152 151 149 145 143 140 137 137 134 131 129 122 117 111 106 98 91 90 91 92 96 99 100 101 102 104 107 106 106 108 107 105 102 98 96 96 102 105 103 102 99 97 97 96 94 92 93 88 80 78 75 74 74 70 69 67 69 67 64 69 74 73 68 69 71 67 67 68 68 71
178 176 176 175 174 179 178 173 177 175 170 171 170 169 167 163 160 157 155 153 149 143 142 140 137 134 129 122 118 113 104 97 95 96 96 98 101 101 101 102 103 106 106 106 107 106 106 103 100 99 100 104 106 104 104 102 101 100 98 94 90 95 94 83 77 74 74 74 70 69 66 67 66 62 66 69 70 68 67 68 66 66 66 68 71
181 180 178 177 175 178 179 179 181 179 175 176 176 176 174 171 168 165 163 159 156 151 148 147 144 141 138 131 125 119 111 104 102 101 101 102 103 103 104 104 105 106 105 106 106 105 105 105 104 104 104 104 105 105 106 104 104 103 99 95 91 97 96 84 75 72 71 71 69 69 65 65 66 64 65 65 67 69 69 69 67 69 69 68 68
183 183 181 183 179 179 182 182 184 181 181 183 182 181 180 179 176 174 171 166 164 160 156 154 151 150 149 140 132 126 117 109 108 108 106 106 106 107 108 109 109 108 108 107 107 107 106 106 105 104 104 103 104 105 106 106 106 104 101 98 95 97 94 82 73 71 70 70 68 68 66 67 68 66 66 63 63 67 71 71 69 69 69 67 64
188 187 184 188 185 183 184 184 185 185 185 186 185 184 185 185 184 182 178 175 173 171 166 162 159 158 156 148 142 132 122 115 113 113 112 111 110 110 111 111 111 110 109 108 107 107 106 105 104 103 103 103 104 104 105 106 106 106 104 102 99 96 91 80 72 70 70 71 70 69 68 68 69 67 67 63 61 63 66 68 68 66 66 65 62
198 195 186 189 194 191 189 189 188 189 189 189 189 189 190 189 189 189 186 184 182 180 174 170 166 165 163 156 149 137 127 122 118 118 119 117 116 115 114 114 113 112 110 108 106 105 104 102 101 101 101 101 102 103 104 105 105 106 106 104 99 95 91 80 73 74 72 73 73 71 71 70 70 69 67 65 62 64 63 63 64 64 63 64 62
200 198 193 194 199 194 192 194 193 194 193 193 193 191 193 193 193 193 192 193 193 189 181 176 172 174 171 164 154 141 134 128 126 124 123 121 120 120 119 118 116 114 110 107 105 103 102 101 100 99 99 101 102 103 104 105 105 106 105 102 96 94 93 84 77 77 73 73 74 74 74 72 71 70 68 66 64 65 64 64 65 66 63 62 61
196 197 199 200 200 198 198 198 199 199 197 197 197 197 196 194 197 197 197 199 199 196 190 184 178 180 177 170 163 151 143 137 135 132 129 127 125 123 121 121 118 114 110 107 106 104 103 101 100 100 101 103 104 106 105 105 105 104 102 99 96 95 96 91 83 79 77 77 76 75 75 73 71 71 69 68 67 66 67 67 69 69 65 62 60
198 198 197 198 200 200 201 200 203 204 199 198 200 203 199 197 202 201 203 202 201 201 197 193 186 183 180 175 171 162 153 147 149 144 137 133 128 126 124 122 119 114 111 109 108 106 105 102 101 101 103 103 104 106 106 106 104 102 99 97 98 98 99 97 88 81 83 83 78 75 76 76 73 72 71 71 71 72 72 72 72 70 67 64 62
199 199 198 198 199 199 203 208 213 211 203 203 207 208 203 205 208 206 208 207 204 204 202 199 192 187 183 179 176 170 160 157 161 154 142 136 132 129 127 125 121 117 114 112 110 108 106 104 103 102 102 103 105 106 105 105 103 100 98 98 99 99 101 100 94 88 86 85 80 75 75 76 76 76 78 78 77 76 76 76 75 73 72 71 67
200 201 204 207 207 207 211 215 219 217 206 205 209 210 211 213 213 212 211 210 208 206 206 204 198 191 187 183 181 177 169 166 167 158 145 142 139 134 133 131 127 124 120 117 115 114 111 109 106 104 103 104 107 108 108 105 102 99 97 97 96 97 101 103 101 95 89 87 83 80 77 75 76 79 81 81 80 77 76 76 76 76 77 74 69
203 201 202 210 213 212 212 212 216 218 211 206 207 211 215 213 215 215 213 215 212 208 209 208 203 196 191 187 183 182 177 173 174 167 155 151 148 143 142 140 136 132 128 125 124 123 120 116 111 107 106 107 109 110 109 106 102 99 95 94 93 96 104 105 103 99 95 91 88 87 82 75 73 74 74 76 76 73 72 73 75 78 78 74 69
207 206 202 210 212 209 208 209 212 215 214 212 215 220 218 215 214 213 213 217 216 214 212 208 207 200 196 193 186 185 183 178 180 180 169 161 160 156 151 147 144 139 136 135 133 132 128 122 115 111 110 110 111 111 109 107 103 99 95 92 94 100 105 105 103 103 101 95 92 91 83 75 73 71 69 72 74 73 74 75 75 76 75 72 69
207 208 209 213 212 207 206 209 211 213 214 214 220 224 219 215 215 219 223 223 218 213 208 209 213 207 200 198 192 189 187 182 182 187 181 172 171 166 158 153 150 148 147 145 142 139 133 126 120 115 115 113 113 112 110 107 104 100 95 93 97 102 105 105 105 108 106 100 96 96 89 80 76 74 70 69 70 71 73 74 74 74 72 69 68
208 208 209 212 212 209 209 213 217 221 222 219 220 224 221 212 209 219 224 221 217 210 211 217 220 213 204 202 199 192 189 189 188 191 188 179 179 176 165 157 155 156 157 153 148 143 137 130 125 121 120 118 116 115 112 109 106 101 96 96 100 104 106 107 107 109 108 104 100 99 98 90 79 73 70 67 65 65 66 68 69 69 70 69 66
212 212 211 211 214 214 217 223 224 227 228 224 221 224 229 218 208 213 216 221 223 218 220 218 218 215 205 204 206 200 195 197 197 196 194 186 182 181 174 164 160 164 165 159 152 149 144 137 131 127 125 122 120 118 115 111 107 102 98 100 104 106 108 107 107 107 107 105 102 99 97 94 85 75 70 70 68 65 64 66 65 64 66 67 66
213 214 215 215 216 218 221 224 225 227 229 227 224 223 229 226 218 217 219 225 226 222 219 214 215 216 207 207 211 210 205 203 202 198 197 193 185 183 181 172 167 172 172 165 159 155 151 143 136 132 128 126 124 121 119 114 108 105 103 105 107 107 107 106 107 107 108 107 103 99 93 89 88 83 77 72 70 71 69 67 66 65 65 66 66
214 214 215 216 216 219 222 225 228 231 233 229 225 224 227 229 225 226 226 225 225 223 221 219 219 213 210 213 212 213 210 203 204 200 197 196 190 186 185 179 173 174 177 174 168 159 153 149 143 136 132 131 131 127 123 119 114 112 110 110 111 110 109 109 108 108 108 107 104 100 95 88 85 86 86 82 80 82 79 72 68 67 67 65 66
219 218 217 219 219 222 226 229 231 232 232 228 225 224 226 229 226 229 229 222 222 223 226 229 224 216 221 221 211 212 211 205 206 205 202 199 194 189 188 187 178 175 178 179 174 164 158 155 148 140 138 139 138 132 127 122 118 117 115 114 115 114 114 113 112 111 109 108 106 102 99 94 89 86 87 89 93 94 90 83 75 70 68 66 65
220 220 221 222 221 223 225 226 227 227 228 228 228 226 225 226 224 225 224 221 221 222 226 228 220 219 228 222 213 218 214 206 207 209 206 198 194 193 192 191 186 181 180 181 177 167 161 159 153 147 143 143 141 135 131 127 123 121 119 120 121 120 120 119 116 115 112 109 106 103 99 96 94 91 86 84 90 95 96 93 85 77 70 66 64
220 221 222 221 219 222 223 223 224 225 226 228 229 231 231 225 221 222 219 220 222 222 223 218 210 217 230 224 221 224 213 207 213 215 209 197 193 196 194 191 192 189 183 182 178 169 164 161 158 155 148 145 143 138 134 132 129 127 126 126 127 125 124 122 120 116 113 109 104 101 98 96 95 94 93 87 82 85 89 92 92 87 78 70 64
220 222 221 218 218 220 222 222 224 225 227 231 232 235 233 225 222 223 217 218 222 221 221 219 217 224 230 223 218 215 209 212 218 216 213 202 196 198 198 194 192 189 185 183 180 175 170 164 161 161 154 149 147 142 138 136 134 133 132 132 130 128 126 123 121 117 113 109 104 100 97 96 94 90 88 86 79 75 73 75 79 85 86 80 70
223 223 220 218 216 218 221 221 225 228 231 237 239 238 231 222 221 221 215 215 223 224 222 222 224 225 224 216 213 213 213 216 216 209 211 210 204 200 198 196 193 188 186 185 184 181 176 170 164 163 159 155 152 145 140 137 136 137 136 135 133 130 129 126 122 118 113 109 104 102 99 94 91 87 83 82 79 74 68 67 66 69 81 87 80
226 224 222 220 217 218 221 221 225 228 234 239 239 232 220 215 218 218 213 214 223 226 224 224 224 223 221 218 217 220 218 216 212 207 209 214 211 203 194 191 191 188 187 187 186 183 179 175 168 164 163 159 154 147 142 139 138 137 134 134 134 132 130 127 123 119 115 110 106 104 102 98 92 87 85 82 81 80 75 71 69 67 71 81 85
225 224 223 221 218 219 221 222 224 226 230 230 221 211 207 210 214 214 214 216 221 222 223 228 228 222 221 221 220 221 222 215 208 206 212 215 210 204 196 188 187 187 188 186 185 183 180 177 171 166 163 158 155 149 144 141 138 136 134 132 132 131 130 128 126 123 118 114 113 109 106 104 97 88 84 81 79 81 80 74 70 68 67 70 75
223 221 219 218 216 218 219 220 222 220 219 213 204 206 207 208 211 211 213 216 219 219 224 231 226 219 221 224 220 218 217 208 202 205 214 216 209 203 197 190 187 186 188 187 184 185 184 180 174 169 163 158 156 151 146 143 136 130 127 126 128 130 131 130 128 126 123 119 117 115 113 107 100 92 83 80 79 77 76 71 67 68 66 63 60
219 217 215 215 214 215 216 217 217 211 206 203 201 203 202 202 205 210 212 213 213 215 223 225 220 219 222 220 215 211 209 203 204 211 216 217 211 202 195 191 190 190 191 191 188 187 185 182 176 170 167 162 156 150 148 145 135 126 123 119 118 124 128 131 132 129 127 126 126 124 121 115 105 98 86 79 78 76 79 73 67 68 66 61 57
215 214 213 213 212 212 213 213 212 207 205 203 201 201 200 201 202 206 211 209 206 210 217 219 218 220 214 208 207 206 204 202 208 215 216 215 210 203 196 193 193 193 193 192 190 188 185 182 175 169 167 164 158 153 151 149 142 140 138 127 119 117 119 127 131 134 136 132 134 134 130 128 119 107 98 87 83 82 84 76 68 68 62 59 57
214 213 212 210 209 209 209 210 211 211 208 205 202 201 200 202 202 205 207 206 204 207 215 218 217 214 207 203 204 202 201 203 206 209 211 212 208 204 200 196 194 193 190 189 189 188 185 182 178 172 166 163 161 159 159 158 154 149 143 141 148 138 129 145 139 139 148 145 144 146 143 140 133 122 120 121 123 111 97 81 68 63 58 56 55
211 212 210 207 206 207 208 208 211 212 208 204 201 199 198 201 203 206 207 205 205 206 212 217 213 209 205 200 198 198 200 204 206 209 213 215 212 210 205 198 193 191 191 191 189 188 186 182 179 175 170 165 164 168 172 169 161 156 145 127 149 164 203 176 153 145 154 156 157 159 159 157 158 161 163 174 177 162 139 104 74 66 61 59 59
212 213 211 209 207 209 209 207 209 210 206 202 200 200 199 199 200 203 203 202 204 205 207 209 206 205 202 196 197 200 200 202 209 215 220 219 214 211 207 200 195 194 196 196 193 191 188 183 181 181 179 175 172 175 180 177 173 171 160 129 140 207 213 156 149 152 160 166 174 175 176 176 180 187 187 195 192 182 175 159 130 104 81 69 67
216 217 215 213 210 209 207 206 208 208 204 202 202 203 201 199 198 198 197 197 200 203 204 204 203 204 204 200 199 200 199 202 208 213 216 217 214 210 208 208 206 202 201 200 196 192 189 186 186 187 187 185 180 178 183 183 181 184 179 164 170 216 153 152 154 158 161 178 189 183 188 188 190 195 196 201 197 193 196 190 183 168 136 98 74
220 219 216 214 211 207 204 204 205 206 204 201 202 203 201 201 201 200 201 200 201 204 206 207 207 207 208 203 198 198 201 203 206 209 213 215 214 212 211 214 212 206 201 199 196 193 192 192 193 193 193 194 188 183 184 184 184 191 195 189 194 222 168 164 166 158 157 183 192 187 197 195 194 198 199 203 202 202 206 202 197 190 193 197 133
222 219 216 214 210 205 204 203 203 206 204 200 202 203 203 203 204 204 205 205 203 205 206 208 210 209 206 201 199 201 204 205 207 211 216 216 213 212 214 214 212 206 200 198 198 196 195 195 196 196 198 200 198 192 189 186 185 194 200 201 214 220 188 176 173 169 156 170 176 180 196 197 198 201 202 205 207 208 210 209 208 204 213 220 216
224 222 219 216 211 207 206 205 206 207 206 206 206 205 206 206 205 204 205 206 206 208 209 207 206 204 201 200 203 206 207 209 210 211 215 214 208 209 215 215 212 206 199 198 198 197 197 197 197 197 201 204 203 202 199 192 190 195 198 200 206 194 187 188 184 179 169 167 175 179 181 186 200 208 209 208 209 215 216 215 216 213 217 222 229
227 225 220 216 212 207 205 205 205 204 206 210 208 207 208 207 205 205 204 204 206 208 209 205 202 202 204 205 206 208 209 209 208 207 208 210 209 210 213 215 213 206 200 198 197 196 197 200 201 202 206 207 205 206 206 200 197 200 199 196 189 178 179 191 190 185 185 181 183 181 176 179 192 202 210 213 213 218 221 221 220 219 224 227 233
227 223 214 211 208 204 203 204 205 201 205 210 208 208 210 208 207 208 208 209 206 203 203 202 203 205 207 208 207 207 208 208 207 206 205 210 215 213 211 212 208 203 201 199 199 200 202 206 207 207 209 210 209 209 208 204 202 203 202 197 191 187 186 191 192 190 190 187 178 175 177 183 187 187 201 214 217 219 224 226 224 225 229 232 236